Weather reports worldwide

Advertisment
Herstmonceux, United Kingdom (3882): temperature & dewpoint: 12.07.2019 06:00:00 - 18.07.2019 06:00:00 (BST)Herstmonceux, United Kingdom (3882): temperature -20cm & temperature -100cm: 12.07.2019 06:00:00 - 18.07.2019 06:00:00 (BST)Herstmonceux, United Kingdom (3882): wind speed: 12.07.2019 06:00:00 - 18.07.2019 06:00:00 (BST)Herstmonceux, United Kingdom (3882): wind direction: 12.07.2019 06:00:00 - 18.07.2019 06:00:00 (BST)Herstmonceux, United Kingdom (3882): reduced air pressure: 12.07.2019 06:00:00 - 18.07.2019 06:00:00 (BST)Herstmonceux, United Kingdom (3882): visibility: 12.07.2019 06:00:00 - 18.07.2019 06:00:00 (BST)Herstmonceux, United Kingdom (3882): sunshine duration: 12.07.2019 06:00:00 - 18.07.2019 06:00:00 (BST)Herstmonceux, United Kingdom (3882): precipitation: 12.07.2019 06:00:00 - 18.07.2019 06:00:00 (BST)
Date & Time tt [°C] td [°C] tt -20cm [°C] tt -100cm [°C] ff [km/h] ff [kn] dd ppp [hPa] vv [km] sd [min] rr [mm]
18.07.2019 06:00:00 15,5 15,4 - - 8 4 WSW 1010,8 7 0 0,0
18.07.2019 05:00:00 15,1 14,8 - - 4 2 WSW 1010,9 4,3 0 0,0
18.07.2019 04:00:00 15,3 14,8 - - 4 2 SW 1011,0 6 0 0,0
18.07.2019 03:00:00 15,6 15,0 - - 5 3 WSW 1011,4 6 0 0,0
18.07.2019 02:00:00 15,3 14,5 - - 5 3 WSW 1011,9 5 0 0,0
18.07.2019 01:00:00 15,6 14,5 - - 5 3 WSW 1012,1 8 - 0,0
18.07.2019 00:00:00 15,8 14,5 - - 8 4 WSW 1012,5 11 0 0,0
17.07.2019 23:00:00 15,8 14,1 - - 8 4 W 1012,6 14 0 0,0
17.07.2019 22:00:00 15,2 12,5 - - 4 2 WSW 1012,9 27 0 0,0
17.07.2019 21:00:00 16,5 13,0 - - 8 4 WSW 1012,8 30 0 0,0
17.07.2019 20:00:00 17,5 12,9 - - 8 4 SW 1013,0 40 0 0,0
17.07.2019 19:00:00 18,6 12,2 - - 9 5 WSW 1013,3 45 0 0,0
17.07.2019 18:00:00 19,3 13,4 - - 9 5 WSW 1013,4 40 6 0,0
17.07.2019 17:00:00 20,0 11,8 - - 11 6 SW 1013,5 35 0 0,0
17.07.2019 16:00:00 20,7 11,4 - - 11 6 SW 1013,9 35 18 0,0
17.07.2019 15:00:00 21,6 11,2 - - 9 5 SW 1014,3 30 6 0,0
17.07.2019 14:00:00 21,8 9,8 - - 11 6 SW 1014,6 30 48 0,0
17.07.2019 13:00:00 22,2 13,4 - - 11 6 S 1014,9 27 60 0,0
17.07.2019 12:00:00 21,6 12,6 - - 8 4 S 1015,2 30 60 0,0
17.07.2019 11:00:00 21,0 13,9 - - 8 4 S 1015,5 27 60 0,0
17.07.2019 10:00:00 19,3 13,3 19,4 17,9 9 5 S 1015,8 17 60 0,0
17.07.2019 09:00:00 18,4 14,0 - - 8 4 SSW 1015,9 25 60 0,0
17.07.2019 08:00:00 15,9 12,8 - - 4 2 SE 1015,8 40 36 0,0
17.07.2019 07:00:00 12,5 12,5 - - 4 2 ENE 1015,9 20 0 0,0
17.07.2019 06:00:00 11,0 10,8 - - 4 2 NE 1016,2 14 0 0,0
17.07.2019 05:00:00 10,7 10,0 - - 4 2 ENE 1016,5 9 0 0,0
17.07.2019 04:00:00 11,8 10,9 - - 5 3 NE 1016,7 13 0 0,0
17.07.2019 03:00:00 11,2 10,7 - - 2 1 N 1017,1 9 0 0,0
17.07.2019 02:00:00 11,4 10,6 - - 2 1 N 1017,6 7 0 0,0
17.07.2019 01:00:00 13,0 11,2 - - 5 3 N 1017,8 22 - 0,0
17.07.2019 00:00:00 14,1 11,0 - - 2 1 W 1017,7 16 0 0,0
16.07.2019 23:00:00 15,1 11,9 - - 9 5 N 1018,0 24 0 0,0
16.07.2019 22:00:00 14,7 11,6 - - 5 3 NNW 1018,1 19 0 0,0
16.07.2019 21:00:00 17,3 11,5 - - 2 1 SSW 1017,8 35 36 0,0
16.07.2019 20:00:00 19,1 11,9 - - 8 4 SSW 1018,1 45 60 0,0
16.07.2019 19:00:00 19,6 11,8 - - 8 4 S 1018,3 30 60 0,0
16.07.2019 18:00:00 19,9 11,9 - - 11 6 S 1018,4 27 60 0,0
16.07.2019 17:00:00 19,8 12,2 - - 13 7 S 1018,8 35 60 0,0
16.07.2019 16:00:00 20,0 12,8 - - 11 6 S 1019,1 26 60 0,0
16.07.2019 15:00:00 19,7 12,8 - - 13 7 S 1019,4 24 60 0,0
16.07.2019 14:00:00 19,9 13,3 - - 13 7 S 1019,6 35 60 0,0
16.07.2019 13:00:00 19,9 12,7 - - 11 6 S 1019,8 19 60 0,0
16.07.2019 12:00:00 18,7 13,1 - - 9 5 S 1019,9 29 24 0,0
16.07.2019 11:00:00 18,9 12,6 - - 4 2 ESE 1020,1 30 36 0,0
16.07.2019 10:00:00 17,7 13,0 19,2 17,9 5 3 WNW 1020,6 23 60 -
16.07.2019 09:00:00 15,9 12,8 - - 4 2 W 1021,0 30 54 0,0
16.07.2019 08:00:00 14,0 13,4 - - 4 2 W 1021,1 30 36 0,0
16.07.2019 07:00:00 11,8 11,8 - - 4 2 N 1020,9 16 0 0,0
16.07.2019 06:00:00 9,7 9,2 - - 4 2 NE 1020,7 9 0 0,0
16.07.2019 05:00:00 11,0 10,8 - - 5 3 NNW 1020,7 10 0 0,0
16.07.2019 04:00:00 9,1 8,5 - - 2 1 NNE 1020,8 17 0 0,0
16.07.2019 03:00:00 10,4 9,7 - - 4 2 NNE 1021,0 7 0 0,0
16.07.2019 02:00:00 10,8 10,3 - - 4 2 N 1021,5 14 0 0,0
16.07.2019 01:00:00 11,1 10,5 - - 4 2 N 1021,7 17 - 0,0
16.07.2019 00:00:00 11,7 11,1 - - 2 1 NE 1021,9 16 0 0,0
15.07.2019 23:00:00 11,9 10,6 - - 2 1 NE 1022,0 23 0 0,0
15.07.2019 22:00:00 13,1 10,7 - - 0 0 N 1021,9 22 0 0,0
15.07.2019 21:00:00 15,5 11,9 - - 8 4 ESE 1021,7 35 30 0,0
15.07.2019 20:00:00 16,8 12,2 - - 5 3 SSE 1021,5 40 54 0,0
15.07.2019 19:00:00 17,9 12,8 - - 5 3 S 1021,5 29 54 0,0
15.07.2019 18:00:00 18,6 12,1 - - 9 5 S 1021,4 25 60 0,0
15.07.2019 17:00:00 18,8 12,0 - - - - - 1021,6 40 24 0,0
15.07.2019 16:00:00 19,8 10,0 - - 9 5 E 1021,9 50 18 0,0
15.07.2019 15:00:00 19,4 10,3 - - 8 4 NE 1022,2 50 12 0,0
15.07.2019 14:00:00 18,9 9,6 - - 5 3 NE 1022,3 30 18 0,0
15.07.2019 13:00:00 20,3 10,4 - - 5 3 NE 1022,5 40 12 0,0
15.07.2019 12:00:00 17,4 9,7 - - 9 5 E 1022,7 30 0 0,0
15.07.2019 11:00:00 16,8 9,7 - - 8 4 NNE 1022,9 30 0 0,0
15.07.2019 10:00:00 15,3 9,3 19,5 17,9 8 4 NNE 1023,1 35 0 0,0
15.07.2019 09:00:00 14,5 9,5 - - 8 4 NNE 1023,0 35 0 0,0
15.07.2019 08:00:00 13,8 10,1 - - 8 4 N 1022,6 30 0 0,0
15.07.2019 07:00:00 12,6 10,1 - - 8 4 NE 1022,6 45 0 0,0
15.07.2019 06:00:00 11,6 9,9 - - 5 3 N 1022,6 35 0 0,0
15.07.2019 05:00:00 10,8 9,7 - - 5 3 N 1022,6 45 0 0,0
15.07.2019 04:00:00 10,4 8,9 - - 8 4 N 1022,4 40 0 0,0
15.07.2019 03:00:00 11,1 9,5 - - 5 3 N 1022,8 50 0 0,0
15.07.2019 02:00:00 11,6 10,5 - - 5 3 NNW 1023,1 40 0 0,0
15.07.2019 01:00:00 12,0 10,7 - - 4 2 NE 1023,0 40 - 0,0
15.07.2019 00:00:00 12,8 11,3 - - 4 2 NE 1023,3 30 0 0,0
14.07.2019 23:00:00 13,3 11,5 - - 4 2 NE 1023,2 30 0 0,0
14.07.2019 22:00:00 15,2 11,8 - - 4 2 NE 1022,9 27 0 0,0
14.07.2019 21:00:00 16,6 12,6 - - 2 1 NE 1022,5 40 12 0,0
14.07.2019 20:00:00 17,8 13,1 - - 4 2 W 1022,3 30 24 0,0
14.07.2019 19:00:00 18,8 13,7 - - 4 2 WSW 1022,4 35 36 0,0
14.07.2019 18:00:00 18,3 13,4 - - 5 3 SW 1022,5 30 6 0,0
14.07.2019 17:00:00 18,8 12,3 - - 5 3 ESE 1022,5 35 24 0,0
14.07.2019 16:00:00 20,5 14,0 - - 4 2 S 1022,5 35 12 0,0
14.07.2019 15:00:00 20,0 11,5 - - 9 5 NNE 1022,6 40 6 0,0
14.07.2019 14:00:00 20,1 11,9 - - 9 5 ENE 1022,8 45 12 0,0
14.07.2019 13:00:00 19,4 12,2 - - 9 5 NE 1022,9 30 12 0,0
14.07.2019 12:00:00 18,9 12,1 - - 8 4 ENE 1023,0 40 0 0,0
14.07.2019 11:00:00 18,1 12,7 - - 9 5 NE 1023,1 35 12 0,0
14.07.2019 10:00:00 17,8 12,9 19,7 17,9 9 5 ENE 1023,1 35 0 0,0
14.07.2019 09:00:00 16,9 12,6 - - 8 4 NE 1022,9 35 6 0,0
14.07.2019 08:00:00 15,9 13,4 - - 9 5 NNE 1022,7 22 6 0,0
14.07.2019 07:00:00 15,4 14,2 - - 8 4 NNE 1022,5 15 0 0,0
14.07.2019 06:00:00 14,1 13,7 - - 4 2 N 1022,2 25 0 0,0
14.07.2019 05:00:00 13,5 13,1 - - 4 2 NE 1022,0 23 0 0,0
14.07.2019 04:00:00 13,2 12,7 - - 4 2 NNE 1022,2 18 0 0,0
14.07.2019 03:00:00 13,3 12,6 - - 4 2 NE 1022,7 17 0 0,0
14.07.2019 02:00:00 14,0 13,5 - - 5 3 ENE 1022,8 20 0 0,0
14.07.2019 01:00:00 13,7 13,0 - - 2 1 ENE 1022,6 12 - 0,0
14.07.2019 00:00:00 14,2 13,2 - - 5 3 ENE 1022,5 9 0 0,0
13.07.2019 23:00:00 15,4 13,7 - - 5 3 E 1022,3 11 0 0,0
13.07.2019 22:00:00 16,0 13,7 - - 2 1 ENE 1022,3 16 0 0,0
13.07.2019 21:00:00 18,0 14,2 - - 2 1 SSE 1021,9 24 0 0,0
13.07.2019 20:00:00 19,3 14,5 - - 4 2 SSE 1021,6 30 12 0,0
13.07.2019 19:00:00 20,0 14,9 - - 8 4 E 1021,5 30 6 0,0
13.07.2019 18:00:00 21,2 15,2 - - 8 4 S 1021,3 35 30 0,0
13.07.2019 17:00:00 22,3 15,6 - - 8 4 SW 1021,4 45 54 0,0
13.07.2019 16:00:00 20,6 14,7 - - 8 4 S 1021,7 40 6 0,0
13.07.2019 15:00:00 20,1 14,9 - - 9 5 SSW 1022,0 26 6 0,0
13.07.2019 14:00:00 19,5 15,0 - - 9 5 S 1022,1 30 0 0,0
13.07.2019 13:00:00 19,3 14,9 - - 5 3 SSW 1022,1 25 6 0,0
13.07.2019 12:00:00 20,9 14,0 - - 5 3 NE 1021,6 30 12 0,0
13.07.2019 11:00:00 20,3 13,7 - - 5 3 NE 1021,4 35 30 0,0
13.07.2019 10:00:00 19,4 13,7 20,0 17,9 9 5 NNE 1021,3 25 60 0,0
13.07.2019 09:00:00 18,3 13,5 - - 9 5 NNE 1021,4 40 60 0,0
13.07.2019 08:00:00 16,6 13,5 - - 9 5 N 1021,0 30 36 0,0
13.07.2019 07:00:00 14,2 12,5 - - 4 2 WSW 1020,7 35 0 0,0
13.07.2019 06:00:00 14,1 12,8 - - 5 3 N 1020,1 35 0 0,0
13.07.2019 05:00:00 12,7 11,4 - - 4 2 WSW 1019,9 20 0 0,0
13.07.2019 04:00:00 14,5 11,6 - - 5 3 SW 1019,7 30 0 0,0
13.07.2019 03:00:00 15,9 12,6 - - 5 3 N 1019,5 40 0 0,0
13.07.2019 02:00:00 16,9 12,5 - - 9 5 N 1018,9 45 0 0,0
13.07.2019 01:00:00 17,5 12,4 - - 11 6 N 1019,1 50 - 0,0
13.07.2019 00:00:00 17,1 11,7 - - 5 3 NNW 1018,8 35 0 0,0
12.07.2019 23:00:00 17,9 11,2 - - 8 4 NW 1018,4 45 0 0,0
12.07.2019 22:00:00 18,9 10,9 - - 5 3 NNW 1017,9 50 0 0,0
12.07.2019 21:00:00 20,8 10,9 - - 11 6 N 1017,0 45 42 0,0
12.07.2019 20:00:00 22,5 10,8 - - 11 6 NNW 1016,3 45 60 0,0
12.07.2019 19:00:00 23,6 11,0 - - 16 9 NNW 1015,6 35 60 0,0
12.07.2019 18:00:00 24,1 11,2 - - 15 8 N 1015,2 35 48 0,0
12.07.2019 17:00:00 23,5 12,6 - - 11 6 N 1015,0 40 24 0,0
12.07.2019 16:00:00 23,8 12,9 - - 13 7 W 1014,9 30 42 0,0
12.07.2019 15:00:00 24,5 12,1 - - 13 7 NW 1014,7 40 42 0,0
12.07.2019 14:00:00 23,8 13,2 - - 13 7 W 1014,6 40 30 0,0
12.07.2019 13:00:00 22,8 12,0 - - 13 7 NW 1014,7 45 36 0,0
12.07.2019 12:00:00 22,9 13,3 - - 9 5 N 1014,4 40 30 0,0
12.07.2019 11:00:00 21,6 13,1 - - 11 6 NW 1014,3 45 42 0,0
12.07.2019 10:00:00 19,9 14,3 20,0 17,7 11 6 NW 1014,0 40 18 0,0
12.07.2019 09:00:00 18,8 14,6 - - 11 6 NW 1014,0 45 30 0,0
12.07.2019 08:00:00 18,1 15,1 - - 11 6 NW 1013,9 50 30 0,0
12.07.2019 07:00:00 16,9 15,0 - - 8 4 W 1013,4 45 0 0,0
12.07.2019 06:00:00 15,9 14,5 - - 5 3 W 1013,0 45 0 0,0

tt = temperature
td = dewpoint
tt -20cm = temperature -20cm
tt -100cm = temperature -100cm
ff = wind speed
dd = wind direction
ppp = reduced air pressure
vv = visibility
sd = sunshine duration
rr = precipitation

Next stations